Hurghada, Egypt

4:54 AM EET on May 22, 2018 (GMT +0200)
Hurghada

Weather History for HEGN - January, 2014

Change the Weather History Date:

Thursday, January 9, 2014

  Actual Average Record
Temperature  
Mean Temperature 63 °F -  
Max Temperature 74 °F 69 °F 77 °F (2003)
Min Temperature 52 °F 52 °F 35 °F (2008)
Degree Days  
Heating Degree Days 2    
Growing Degree Days 13 (Base 50)    
Moisture  
Dew Point 41 °F    
Average Humidity 45    
Maximum Humidity 72    
Minimum Humidity 16    
Precipitation  
Precipitation 0.00 in - - ()
Sea Level Pressure  
Sea Level Pressure 29.95 in    
Wind  
Wind Speed 6 mph ()    
Max Wind Speed 16 mph    
Max Gust Speed -    
Visibility 6.1 miles    
Events      
Averages and records for this station are not official NWS values.
T = Trace of Precipitation, MM = Missing Value Source: Averaged Metar Reports

Daily Weather History Graph

Daily Weather History Graph

Search for Another Location

Airport or City:

Astronomy

Jan. 09, 2014 Rise Set
Actual Time 6:36 AM EET 5:08 PM EET
Civil Twilight 6:10 AM EET 5:33 PM EET
Nautical Twilight 5:42 AM EET 6:02 PM EET
Astronomical Twilight 5:13 AM EET 6:30 PM EET
Moon 12:10 PM EET (1/9) 12:37 AM EET (1/9)
Length of Visible Light 11h 22m
Length of Day
10h 32m
Waxing Gibbous, 63% of the Moon is Illuminated
Jan 9
Waxing Gibbous
Jan 16
Full
Jan 24
Last Quarter
Jan 30
New
Feb 6
First Quarter

Hourly Weather History & Observations

Time (EET) Temp. Dew Point Humidity Pressure Visibility Wind Dir Wind Speed Gust Speed Precip Events Conditions
12:00 AM 59.0 °F 48.2 °F 67% 29.95 in - NW 9.2 mph - N/A   Clear
1:00 AM 57.2 °F 44.6 °F 63% 29.95 in - North 6.9 mph - N/A   Clear
2:00 AM 54 °F 44 °F 59% 29.96 in 6 mi North 4.6 mph - -  
2:00 AM 53.6 °F 44.6 °F 72% 29.95 in - North 4.6 mph - N/A   Clear
3:00 AM 55.4 °F 39.2 °F 54% 29.95 in - NNW 6.9 mph - N/A   Clear
4:00 AM 55.4 °F 37.4 °F 51% 29.95 in - North 4.6 mph - N/A   Clear
4:30 AM 55.4 °F 37.4 °F 51% 29.95 in - North 4.6 mph - N/A   Clear
5:00 AM 56 °F 37 °F 37% 29.97 in 6 mi NNW 10.4 mph - -  
5:00 AM 57.2 °F 37.4 °F 48% 29.95 in - NNW 10.4 mph - N/A   Clear
6:00 AM 53.6 °F 37.4 °F 54% 29.98 in - NNW 6.9 mph - N/A   Clear
7:00 AM 53.6 °F 35.6 °F 51% 29.98 in 6.2 mi NNW 6.9 mph - N/A   Partly Cloudy
8:00 AM 54 °F 36 °F 38% 30.01 in 6 mi Calm Calm - -  
8:00 AM 53.6 °F 35.6 °F 51% 30.01 in - Calm Calm - N/A   Clear
9:00 AM 64.4 °F 37.4 °F 37% 30.01 in - Calm Calm - N/A   Clear
10:00 AM 69.8 °F 37.4 °F 31% 29.98 in - North 2.3 mph - N/A   Clear
11:00 AM 72 °F 36 °F 17% 29.98 in 6 mi NW 6.9 mph - -  
11:00 AM 71.6 °F 35.6 °F 27% 29.98 in - NW 6.9 mph - N/A   Clear
12:00 PM 73.4 °F 35.6 °F 25% 29.92 in - NW 9.2 mph - N/A   Clear
1:00 PM 73.4 °F 35.6 °F 25% 29.89 in 6.2 mi NW 11.5 mph - N/A   Scattered Clouds
2:00 PM 74 °F 37 °F 16% 29.90 in 6 mi NW 9.2 mph - -   Partly Cloudy
2:00 PM 73.4 °F 37.4 °F 27% 29.89 in 6.2 mi NW 9.2 mph - N/A   Scattered Clouds
3:00 PM 73.4 °F 37.4 °F 27% 29.89 in 6.2 mi NNE 6.9 mph - N/A   Scattered Clouds
4:00 PM 69.8 °F 39.2 °F 33% 29.89 in 6.2 mi Calm Calm - N/A   Scattered Clouds
5:00 PM 68 °F 40 °F 24% 29.92 in 6 mi North 5.8 mph - -   Partly Cloudy
5:00 PM 68.0 °F 39.2 °F 35% 29.92 in 6.2 mi North 5.8 mph - N/A   Scattered Clouds
6:00 PM 66.2 °F 55.4 °F 68% 29.95 in 6.2 mi North 13.8 mph - N/A   Scattered Clouds
7:00 PM 64.4 °F 51.8 °F 64% 29.95 in 6.2 mi North 16.1 mph - N/A   Scattered Clouds
8:00 PM 62.6 °F 53.6 °F 72% 29.98 in 6.2 mi North 16.1 mph - N/A   Scattered Clouds
9:00 PM 62.6 °F 53.6 °F 72% 30.01 in 6.2 mi NNW 16.1 mph - N/A   Scattered Clouds
11:00 PM 57.2 °F 46.4 °F 67% 30.01 in 6.2 mi NNW 12.7 mph - N/A   Scattered Clouds